Terug naar catalogus

XINGJIYUAN-1

ActiefWetenschapSSO
NORAD 64090·PAYLOAD·🇨🇳 China
Deze satellietnaam is nog niet bevestigd door officiële bronnen.

Gelanceerd May 21, 2025 vanaf Jiuquan Satellite Launch Center

Loading…

Volgende Passages (komende 24 uur)

TLE

VersSource: Space-Track

Epoch: Sep 14, 2026, 15:05 UTC

1 64090U 25108D   26257.62882056  .00004357  00000-0  20756-3 0  9996
2 64090  97.4619 332.2283 0013172  57.8146 302.4364 15.19581963 72947

Volg XINGJIYUAN-1 in realtime met AllMySat

Download on the App Store